Location: Juzet
(42.9779°N, 0.7597°E)
Time: 19:10:19
(UTC+00:00)

ADEOS II - Pass Details

Date: 14 July 2020
Orbit: 799 x 801 km, 98.5° (Epoch: 12 August)

Event Time Altitude Azimuth Distance (km) Brightness Sun altitude
Rises 01:19:00 0° 26° (NNE) 3,319 6.7 -23.1°
Reaches altitude 10° 01:21:48 10° 40° (NE) 2,383 5.5 -22.9°
Maximum altitude 01:25:59 24° 93° (E) 1,617 3.8 -22.6°
Enters shadow 01:28:37 17° 133° (SE) 1,953 3.9 -22.4°
